Skip Navigation Links weather.gov 
NOAA logo-Select to go to the NOAA homepage NDBC Title GraphicClick to go to NDBC home page   Select to go to the NWS homepage
Home About Us Contact Us
 
 
    
    Station List

 Data Access
    Mobile Access
    Classic Maps
         Recent
         DART®
    Obs Search
    Ship Obs Report
    BuoyCAMs
    TAO
    DODS
    OceanSITES
    HF Radar
    OSMC
    Dial-A-Buoy
    RSS Feeds Image indicating link to RSS feed access page
    Web Widget
    Web Data Guide
    Maintenance Schedule
    Station Status Report

 Program Info
    TAO
    DART®
    IOOS®

 Publications
    NDBC PEA
    NDBC FONSI
    NDBC DQC Handbook

 Visitor Information
 
USA.gov is the U.S. government's official web portal to all federal, state and local government web resources and services.

Station MVXA2 - Mendenhall Valley, AK Image indicating link to RSS feed of recent meteorological observations for station MVXA2

Owned and maintained by Marine Exchange of Alaska
C-MAN Station
58.364 N 134.606 W (58°21'51" N 134°36'21" W)

Site elevation: 7.6 m above mean sea level
Air temp height: 11.9 m above site elevation
Anemometer height: 11.9 m above site elevation
Barometer elevation: 19.5 m above mean sea level

Search And Rescue (SAR) Data

Meteorological Observations from Nearby Stations and Ships Image indicating link to RSS feed of recent meteorological observations near station MVXA2

Large icon indicates selected station.
yellow diamond Stations with recent data
red diamond Stations with no data in last 8 hours
     (24 hours for tsunami stations)


Conditions at MVXA2 as of
(1:23 pm AKST)
2223 GMT on 12/02/2020:
     

Click on the graph icon in the table below to see a time series plot of the last five days of that observation.

5-day plot - Wind Direction Wind Direction (WDIR): SSW ( 210 deg true )
5-day plot - Wind Speed Wind Speed (WSPD): 12 kts
5-day plot - Wind Gust Wind Gust (GST): 23 kts
5-day plot - Atmospheric Pressure Atmospheric Pressure (PRES): 29.57 in
5-day plot - Air Temperature Air Temperature (ATMP): 50.9 °F
5-day plot - Dew Point Dew Point (DEWP): 31.1 °F
5-day plot - Wind Chill Wind Chill (CHILL): 46.0 °F
5-day plot - Wind Speed at 10 Meters Wind Speed at 10 meters (WSPD10M): 12 kts
5-day plot - Wind Speed at 10 Meters Wind Speed at 20 meters (WSPD20M): 12 kts
5-day plot - Wind Speed, Wind Gust and Atmospheric Pressure Combined plot of Wind Speed, Gust, and Air Pressure
Previous observations
5-day plot - Wind Direction 5-day plot - Wind Speed 5-day plot - Wind Gust 5-day plot - Wave Height 5-day plot - Dominant Wave Period 5-day plot - Average Period 5-day plot - Mean Wave Direction 5-day plot - Atmospheric Pressure 5-day plot - Pressure Tendency 5-day plot - Air Temperature 5-day plot - Water Temperature 5-day plot - Dew Point 5-day plot - Salinity 5-day plot - Visibility 5-day plot - Tide (above MLLW)
MM DD TIME
(AKST)
WDIR WSPD
kts
GST
kts
WVHT
ft
DPD
sec
APD
sec
MWD PRES
in
PTDY
in
ATMP
°F
WTMP
°F
DEWP
°F
SAL
psu
VIS
nmi
TIDE
ft
1202 1:13 pmSSW 9 20----29.58- 50.4- 32.0---
1202 1:03 pmSSW 10 19----29.58- 50.4- 32.4---
120212:53 pmSSW 9 17----29.58- 49.8- 33.3---
120212:43 pmSSW 11 20----29.58- 50.2- 33.1---
120212:33 pmSSW 12 20----29.59- 50.0- 33.6---
120212:23 pm S 12 21----29.60- 49.6- 34.7---
120212:13 pm S 12 21----29.61- 48.7- 36.0---
120212:03 pm S 9 21----29.61- 48.4- 36.3---
120211:53 am S 9 19----29.62- 48.6- 36.5---
120211:43 am S 11 22----29.63- 48.7- 36.7---
120211:33 amSSW 12 22----29.63- 48.4- 36.9---
120211:23 am S 12 20----29.63- 48.6- 37.2---
120211:13 amSSW 13 24----29.63- 48.4- 37.4---
120211:03 amSSW 11 18----29.64- 47.8- 37.9---
120210:53 amSSW 11 21----29.64- 48.0- 38.1---
120210:44 amSSW 13 23----29.65- 48.0- 38.3---
120210:33 amSSW 16 30----29.64- 48.0- 38.5---
120210:23 amSSW 16 26----29.65- 47.5- 39.0---
120210:13 am S 18 29----29.66- 47.3- 39.0---
120210:03 amSSW 18 32----29.67- 46.8- 39.4---
1202 9:53 am S 21 37----29.67- 47.1- 39.2---
1202 9:44 amSSW 21 36----29.67- 47.1- 39.2---
1202 9:33 amSSW 21 32----29.67- 47.5- 39.6---
1202 9:23 amSSW 22 35----29.67- 47.3- 40.1---
1202 9:13 amSSW 21 35----29.67- 47.5- 40.5---
1202 9:03 am S 19 31----29.67- 47.3- 41.2---
1202 8:53 amSSW 18 31----29.67- 47.5- 41.5---
1202 8:43 amSSW 20 31----29.67- 48.2- 41.5---
1202 8:33 amSSW 18 27----29.67- 48.4- 41.7---
1202 8:23 amSSW 18 29----29.68- 48.2- 41.9---
1202 8:13 amSSW 18 32----29.67- 48.4- 42.1---
1202 8:03 amSSW 21 31----29.67- 48.6- 42.1---
1202 7:53 amSSW 20 33----29.68- 48.9- 42.1---
1202 7:43 am S 22 36----29.68- 48.7- 42.3---
1202 7:33 amSSW 24 33----29.67- 48.4- 42.4---
1202 7:23 amSSW 25 37----29.65- 48.4- 42.4---
1202 7:13 amSSW 22 34----29.66- 48.6- 42.4---
1202 7:03 amSSW 24 35----29.66- 48.2- 42.6---
1202 6:53 amSSW 19 31----29.66- 47.8- 42.8---
1202 6:43 amSSW 20 34----29.66- 47.1- 43.0---
1202 6:33 amSSW 21 35----29.65- 46.6- 42.8---
1202 6:23 amSSW 22 34----29.65- 46.2- 42.8---
1202 6:13 amSSW 19 33----29.65- 46.2- 43.0---
1202 6:03 amSSW 22 37----29.65- 46.4- 43.0---
1202 5:54 amSSW 25 38----29.64- 46.4- 43.2---
1202 5:43 amSSW 23 40----29.64- 46.4- 43.3---
1202 5:33 amSSW 23 39----29.64- 46.2- 43.5---
1202 5:23 amSSW 25 40----29.65- 46.2- 43.5---
1202 5:13 amSSW 24 39----29.65- 46.2- 43.7---
1202 5:03 amSSW 25 39----29.65- 46.2- 43.7---
1202 4:53 amSSW 24 40----29.65- 46.2- 43.7---
1202 4:43 amSSW 24 35----29.66- 46.0- 43.5---
1202 4:33 amSSW 23 38----29.66- 45.9- 43.7---
1202 4:23 amSSW 23 39----29.66- 45.9- 43.7---
1202 4:13 am S 23 40----29.66- 45.9- 43.7---
1202 4:03 amSSW 21 33----29.66- 46.0- 43.5---
1202 3:53 amSSW 23 34----29.65- 46.0- 43.3---
1202 3:43 amSSW 20 34----29.66- 46.0- 43.3---
1202 3:33 am S 21 37----29.66- 46.2- 43.5---
1202 3:23 am S 22 33----29.66- 46.2- 43.7---
1202 3:13 amSSW 22 36----29.66- 46.2- 43.7---
1202 3:03 am S 21 37----29.65- 46.2- 43.7---
1202 2:53 am S 19 32----29.65- 46.4- 43.7---
1202 2:43 am S 16 31----29.65- 46.4- 43.7---
1202 2:33 amSSW 19 34----29.65- 46.4- 43.7---
1202 2:23 amSSW 20 33----29.66- 46.6- 43.9---
1202 2:13 am S 19 31----29.66- 46.6- 44.1---
1202 2:03 amSSW 19 32----29.65- 46.6- 43.9---
1202 1:53 am S 16 30----29.65- 46.8- 43.9---
1202 1:43 am S 18 32----29.64- 46.8- 43.9---
1202 1:33 am S 17 32----29.65- 46.6- 43.9---
1202 1:23 am S 16 30----29.65- 46.4- 43.9---
1202 1:13 am S 19 36----29.65- 46.4- 43.9---
1202 1:03 am S 18 31----29.65- 46.2- 43.7---
120212:53 am S 18 34----29.64- 46.2- 43.9---
120212:43 am S 17 32----29.63- 46.4- 43.9---
120212:33 am S 16 32----29.63- 46.4- 43.9---
120212:23 am S 18 35----29.64- 46.2- 43.9---
120212:13 am S 17 38----29.64- 46.2- 44.1---
120212:03 am S 20 34----29.64- 46.2- 43.9---
120111:53 pm S 19 36----29.64- 46.2- 43.9---
120111:43 pm S 20 35----29.64- 46.2- 43.7---
120111:34 pm S 16 31----29.64- 46.0- 43.9---
120111:23 pm S 18 31----29.64- 46.0- 43.7---
120111:13 pm S 19 33----29.63- 46.0- 43.5---
120111:03 pm S 17 32----29.63- 46.0- 43.7---
120110:53 pm S 16 29----29.63- 45.9- 43.7---
120110:43 pm S 20 33----29.63- 45.9- 43.7---
120110:33 pm S 18 36----29.62- 45.9- 43.7---
120110:23 pm S 16 31----29.62- 45.9- 43.7---
120110:13 pmSSW 18 33----29.63- 45.9- 43.7---
120110:03 pm S 17 33----29.63- 45.7- 43.5---
1201 9:53 pm S 18 30----29.62- 45.7- 43.5---
1201 9:43 pm S 18 34----29.62- 45.5- 43.5---
1201 9:33 pm S 19 36----29.61- 45.5- 43.3---
1201 9:23 pm S 18 32----29.61- 45.3- 43.3---
1201 9:13 pm S 21 34----29.61- 45.5- 43.2---
1201 9:03 pm S 20 34----29.60- 45.5- 43.0---
1201 8:53 pm S 20 34----29.59- 45.5- 43.0---
1201 8:43 pmSSW 20 37----29.59- 45.5- 43.0---
1201 8:33 pm S 18 36----29.59- 45.7- 43.0---
1201 8:23 pmSSW 19 34----29.59- 45.7- 43.2---
1201 8:13 pm S 19 33----29.59- 45.7- 43.2---
1201 8:03 pm S 19 34----29.58- 45.7- 43.2---
1201 7:53 pm S 20 33----29.58- 45.9- 43.3---
1201 7:43 pm S 17 33----29.58- 45.9- 43.3---
1201 7:33 pm S 16 31----29.58- 45.9- 43.2---
1201 7:23 pmSSW 17 29----29.58- 45.9- 43.2---
1201 7:13 pmSSW 20 30----29.58- 45.9- 43.3---
1201 7:03 pm S 17 30----29.58- 45.9- 43.2---
1201 6:53 pm S 18 29----29.57- 46.2- 43.2---
1201 6:43 pmSSW 22 35----29.57- 46.2- 43.2---
1201 6:33 pmSSW 24 36----29.56- 46.2- 43.5---
1201 6:23 pmSSW 22 33----29.55- 46.2- 43.5---
1201 6:13 pmSSW 21 37----29.54- 46.6- 43.5---
1201 6:03 pmSSW 21 35----29.54- 46.8- 43.7---
1201 5:54 pmSSW 18 31----29.54- 46.6- 43.7---
1201 5:43 pmSSW 20 31----29.55- 46.8- 43.7---
1201 5:33 pmSSW 18 27----29.53- 46.9- 43.9---
1201 5:23 pmSSW 23 36----29.51- 46.9- 43.7---
1201 5:13 pmSSW 25 39----29.48- 47.1- 43.9---
1201 5:03 pmSSW 25 39----29.49- 47.3- 43.9---
1201 4:53 pm S 19 35----29.49- 47.5- 44.1---
1201 4:43 pmSSW 23 36----29.51- 47.5- 44.1---
1201 4:33 pmSSW 19 28----29.51- 47.3- 44.1---
1201 4:23 pmSSW 19 31----29.52- 47.3- 44.2---
1201 4:13 pmSSW 21 33----29.51- 47.3- 44.1---
1201 4:03 pmSSW 19 34----29.50- 47.1- 44.4---
1201 3:53 pmSSW 18 28----29.53- 47.1- 44.4---
1201 3:43 pmSSW 20 30----29.52- 46.9- 44.2---
1201 3:33 pmSSW 21 32----29.52- 46.8- 44.1---
1201 3:23 pmSSW 21 31----29.52- 46.4- 43.9---
1201 3:13 pmSSW 20 31----29.52- 46.4- 43.9---
1201 2:53 pm S 15 30----29.52- 45.9- 43.7---
1201 2:43 pm S 18 34----29.52- 45.7- 43.5---
1201 2:33 pm S 18 31----29.53- 45.7- 43.2---
1201 2:23 pm S 17 30----29.53- 45.7- 43.2---
1201 2:13 pm S 17 33----29.53- 45.7- 43.2---
1201 2:03 pm S 18 32----29.53- 45.7- 43.0---
1201 1:53 pm S 16 31----29.53- 45.5- 43.0---
1201 1:43 pm S 15 33----29.53- 45.3- 42.8---
1201 1:33 pm S 16 32----29.53- 45.1- 42.6---
1201 1:23 pm S 14 31----29.53- 45.0- 42.4---
1201 1:13 pm S 14 28----29.54- 44.8- 42.3---
1201 1:03 pm S 15 32----29.54- 44.6- 41.9---
120112:54 pm S 15 29----29.55- 44.6- 41.9---

Description of Measurements

Links which are specific to this station are listed below:

Real Time Data in tabular form for the last forty-five days.

Historical Data & Climatic Summaries for quality controlled data for the current month, previous months, and previous years.